Location: Baia Mare
(47.6567°N, 23.5850°E)
Time: 22:38:02
(UTC+03:00)

ISS - Pass Details

Date: 15 September 2019
Orbit: 411 x 421 km, 51.6° (Epoch: 19 September)

Event Time Altitude Azimuth Distance (km) Brightness Sun altitude
Exits shadow 04:59:29 21° 148° (SSE) 1,001 -1.9 -20.4°
Drops below altitude 10° 05:00:47 10° 139° (SE) 1,486 -0.8 -20.2°
Sets 05:02:55 0° 133° (SE) 2,347 0.3 -19.9°
